This is the latest recevied weather packets stored in our database for station/object EA3BNF-1. If no packets are shown the sender has not sent any weather packets the latest 10 day(s).
| Time | Temp. | Humidity | Pressure | Rain* | Wind** | Luminosity | Snow |
|---|---|---|---|---|---|---|---|
| 1778070885 | 20.56° C | 53% | 1011.9 hPa | - | - | - | - |
| 1778070230 | 20.56° C | 52% | 1012 hPa | - | - | - | - |
| 1778069574 | 20° C | 55% | 1012.1 hPa | - | - | - | - |
| 1778068918 | 20° C | 53% | 1012.2 hPa | - | - | - | - |
| 1778068263 | 20° C | 52% | 1012.2 hPa | - | - | - | - |
| 1778067607 | 20° C | 54% | 1012.2 hPa | - | - | - | - |
| 1778066952 | 19.44° C | 55% | 1012.3 hPa | - | - | - | - |
| 1778066296 | 19.44° C | 54% | 1012.4 hPa | - | - | - | - |
| 1778065640 | 19.44° C | 54% | 1012.4 hPa | - | - | - | - |
| 1778064985 | 19.44° C | 54% | 1012.5 hPa | - | - | - | - |
| 1778064329 | 19.44° C | 53% | 1012.5 hPa | - | - | - | - |
| 1778063673 | 18.89° C | 52% | 1012.6 hPa | - | - | - | - |
| 1778063018 | 18.89° C | 53% | 1012.7 hPa | - | - | - | - |
| 1778062362 | 18.89° C | 54% | 1012.8 hPa | - | - | - | - |
| 1778061706 | 18.33° C | 54% | 1012.9 hPa | - | - | - | - |
| 1778061051 | 18.33° C | 55% | 1013 hPa | - | - | - | - |
| 1778060395 | 18.33° C | 55% | 1012.9 hPa | - | - | - | - |
| 1778059740 | 18.33° C | 56% | 1013 hPa | - | - | - | - |
| 1778059084 | 18.33° C | 55% | 1012.9 hPa | - | - | - | - |
| 1778058428 | 18.33° C | 55% | 1012.9 hPa | - | - | - | - |
| 1778057773 | 17.78° C | 56% | 1012.9 hPa | - | - | - | - |
| 1778057117 | 17.78° C | 56% | 1012.8 hPa | - | - | - | - |
| 1778056461 | 17.78° C | 55% | 1012.7 hPa | - | - | - | - |
| 1778055806 | 17.22° C | 53% | 1012.5 hPa | - | - | - | - |
| 1778055150 | 17.22° C | 54% | 1012.5 hPa | - | - | - | - |
* Rain since midnight (hover to see other rain measurements)
** Current wind speed in m/s (hover to see current wind gust speed)